Terminal Aerodrome Forecast
Issued by NWS Pittsburgh, PA

Current Version | Previous Version | Graphics & Text | Print | Product List | Glossary On
Versions: 1 2 3 4 5 6 7 8 9 10 11 12 13 14 15 16 17 18 19 20 21 22 23 24 25 26 27 28 29
000
FTUS41 KPBZ 182100 AAA
TAFPIT
TAF AMD
KPIT 182103Z 1821/1924 27011G21KT P6SM SCT028
     FM190800 20010KT P6SM BKN035
     FM191700 18011G18KT P6SM BKN035 OVC100
      TEMPO 1918/1922 5SM -SN=

USA.gov is the U.S. government's official web portal to all federal, state and local government web resources and services.